Hourly Data Report for March 29, 1986

TIMMINS VICTOR POWER A
ONTARIO

48°34'11.000" N
81°22'36.000" W
294.70 m
6078285
71739
YTS

Download Data

Hourly Data (March 1986)
Hourly Data Report for March 29, 1986
TIME
LST
Temp Definition
°C
Dew Point Definition
°C
Rel Hum Definition
%
Precip. Amount Definition
mm

Wind Dir Definition
10's deg

Wind Spd Definition
km/h
Visibility Definition
km
Stn Press Definition
kPa
Hmdx Definition


Wind Chill Definition


Weather Definition


00:00 5.4 -0.6 65   27 13 24.1 96.85     Mainly Clear
01:00 5.3 -1.3 63   27 13 24.1 96.92     Clear
02:00 3.3 -2.0 68   30 13 24.1 97.02     Clear
03:00 2.6 -2.7 68   28 9 24.1 97.12     Mainly Clear
04:00 1.6 -3.0 71   28 9 24.1 97.28     Mainly Clear
05:00 0.0 -3.6 77   25 9 24.1 97.38   -3 Mainly Clear
06:00 -0.3 -3.6 78   24 7 24.1 97.48   -3 Mainly Clear
07:00 -0.2 -3.2 80   26 7 24.1 97.55   -3 Mainly Clear
08:00 1.8 -2.7 72   29 9 24.1 97.61     Mainly Clear
09:00 4.3 -2.3 62   31 13 24.1 97.68     Mainly Clear
10:00 5.4 -2.3 58   28 17 24.1 97.68     Mainly Clear
11:00 6.8 -3.0 50   31 13 24.1 97.71     Mainly Clear
12:00 8.8 -3.7 41     0 24.1 97.68     Mainly Clear
13:00 8.8 -4.0 40   17 7 24.1 97.71     Mainly Clear
14:00 9.2 -4.1 39   12 9 24.1 97.64     Mainly Clear
15:00 9.5 -4.9 36   17 4 24.1 97.61     Mostly Cloudy
16:00 10.5 -6.4 30   19 6 24.1 97.58     Cloudy
17:00 9.9 -6.5 31     0 24.1 97.61     Cloudy
18:00 9.1 -6.1 33   7 7 24.1 97.58     Cloudy
19:00 7.5 -3.6 45   12 9 19.3 97.48     Cloudy
20:00 7.3 -3.1 48   10 9 24.1 97.41     Cloudy
21:00 6.1 -1.4 59   12 19 24.1 97.28     Cloudy
22:00 5.7 -0.7 63   13 15 24.1 97.08     Cloudy
23:00 6.2 -2.7 53   14 19 24.1 97.02     Cloudy

Notes on Data Quality.

Legend

  • E = Estimated
  • M = Missing
  • NA = Not Available*
  • [empty] = Indicates an unobserved value
Date modified: